Airport Information

KNUW - Whidbey Island Nas Airport

KNUW 251056Z 00000KT 10SM FEW040 FEW100 06/04 A3012 RMK AO2 VIS 1 SLP199 T00610039 $


  • General Information

  • Coordinates: N 48°21'6"/ W 122°39'21"
  • Location: N/A
  • Surveyed Elevation: 47 MSL

Operations

Flow Name Active Runways Conditions

Green background denotes normal operations.


Common Frequencies

Callsign Frequency Position Name

More at the Document Center


Charts